This is the latest recevied weather packets stored in our database for station/object ON7MOR-11. If no packets are shown the sender has not sent any weather packets the latest 10 day(s).
| Time | Temp. | Humidity | Pressure | Rain* | Wind** | Luminosity | Snow |
|---|---|---|---|---|---|---|---|
| 1777786982 | 20° C | 41% | 1011.6 hPa | - | - | - | - |
| 1777786082 | 20° C | 41% | 1011.7 hPa | - | - | - | - |
| 1777785182 | 20° C | 42% | 1011.6 hPa | - | - | - | - |
| 1777784282 | 20° C | 41% | 1011.7 hPa | - | - | - | - |
| 1777783382 | 20° C | 41% | 1011.8 hPa | - | - | - | - |
| 1777782482 | 20° C | 41% | 1011.9 hPa | - | - | - | - |
| 1777781582 | 20° C | 41% | 1011.9 hPa | - | - | - | - |
| 1777780682 | 20° C | 41% | 1012 hPa | - | - | - | - |
| 1777779781 | 20° C | 41% | 1011.9 hPa | - | - | - | - |
| 1777778881 | 20° C | 41% | 1012 hPa | - | - | - | - |
| 1777777981 | 20° C | 42% | 1012.1 hPa | - | - | - | - |
| 1777777081 | 20.56° C | 41% | 1012.2 hPa | - | - | - | - |
| 1777776181 | 20.56° C | 41% | 1012.3 hPa | - | - | - | - |
| 1777775281 | 20° C | 41% | 1012.2 hPa | - | - | - | - |
| 1777774382 | 20.56° C | 41% | 1013 hPa | - | - | - | - |
| 1777773481 | 20.56° C | 40% | 1013.1 hPa | - | - | - | - |
| 1777766284 | 21.11° C | 40% | 1013.4 hPa | - | - | - | - |
| 1777759083 | 22.22° C | 39% | 1014.3 hPa | - | - | - | - |
| 1777758183 | 22.22° C | 39% | 1014.4 hPa | - | - | - | - |
| 1777755482 | 22.78° C | 39% | 1014.1 hPa | - | - | - | - |
| 1777753682 | 22.78° C | 39% | 1015.1 hPa | - | - | - | - |
| 1777741081 | 24.44° C | 38% | 1014.7 hPa | - | - | - | - |
| 1777739281 | 24.44° C | 36% | 1015 hPa | - | - | - | - |
| 1777737480 | 24.44° C | 37% | 1015.4 hPa | - | - | - | - |
| 1777735680 | 23.89° C | 36% | 1015.8 hPa | - | - | - | - |
* Rain since midnight (hover to see other rain measurements)
** Current wind speed in m/s (hover to see current wind gust speed)